(67667) = 2000 SK274 = 2002 GJ24

Discovered at Socorro on 2000-09-28 by LINEAR.

Orbit

Orbit type: Main Belt

Note: WebGL enabled browser required.

epoch2022-01-21.0
epoch JD2459600.5
perihelion date2020-10-09.01500
perihelion JD2459131.51500
argument of perihelion (°)181.63135
ascending node (°)187.68120
inclination (°)6.26397
eccentricity0.1661565
perihelion distance (AU)1.8691748
Tisserand w.r.t. Jupiter3.6
ΔV w.r.t. Earth (km/sec)8.6
semimajor axis (AU)2.2416376
mean anomaly (°)137.72561
mean daily motion (°/day)0.29366740
aphelion distance (AU)2.614
period (years)3.36
P-vector [x]0.98684301
P-vector [y]0.14954798
P-vector [z]0.06145143
Q-vector [x]-0.16102234
Q-vector [y]0.94334727
Q-vector [z]0.29011676
absolute magnitude17.2
phase slope0.15
uncertainty0
referenceMPO 692766
observations used549
oppositions15
arc length (days)11469
first opposition used1990
last opposition used2022
residual rms (arc-secs)0.74
perturbers coarse indicatorM-v
perturbers precise indicator003Ek
first observation date used1990-11-14.0
last observation date used2022-04-09.0
computer namePan
JD of orbit computation2456612.823904
perihelion JD uncertainty (days)4.2483E-05
argument of perihelion uncertainty (°)3.4629E-05
ascending node uncertainty (°)3.0873E-05
inclination uncertainty (°)7.5095E-06
eccentricity uncertainty 7.5927E-08
perihelion distance uncertainty (AU)1.7259E-07
Minimum Orbit Intersection Distances (in AU)
for orbit epoch: 2459200.5, reference: E2021-B10
Mercury1.51392
Venus1.1445
Earth0.86663
Mars0.45641
Jupiter2.84318
Saturn6.80144
Uranus15.7424
Neptune27.9947

Observations

551 total observations over interval: 1990 11 14.37725 – 2022 04 09.136671
These data are available for download (format description).

Date (UT) J2000 RA J2000 Dec Magn Location Ref
1990 11 14.37725 03 38 14.39 +10 11 53.2 20.1 V 691 – Steward Observatory, Kitt Peak-Spacewatch MPS 78014
1990 11 14.39791 03 38 13.10 +10 11 44.7 20.0 V 691 – Steward Observatory, Kitt Peak-Spacewatch MPS 78014
1990 11 14.41909 03 38 11.80 +10 11 35.7 20.1 V 691 – Steward Observatory, Kitt Peak-Spacewatch MPS 78014
1990 11 16.25165 03 36 23.93 +09 59 09.6 20.0 V 691 – Steward Observatory, Kitt Peak-Spacewatch MPS 78014
1990 11 16.26491 03 36 23.12 +09 59 04.4 19.9 V 691 – Steward Observatory, Kitt Peak-Spacewatch MPS 78014
1990 11 16.27819 03 36 22.28 +09 58 58.9 20.1 V 691 – Steward Observatory, Kitt Peak-Spacewatch MPS 78014
2000 09 28.34617 02 52 35.14 +12 52 31.3 19.3   704 – Lincoln Laboratory ETS, New Mexico MPS 20222
2000 09 28.36171 02 52 34.97 +12 52 25.7 19.5   704 – Lincoln Laboratory ETS, New Mexico MPS 20222
2000 09 28.37733 02 52 34.84 +12 52 19.6 19.3   704 – Lincoln Laboratory ETS, New Mexico MPS 20222
2000 09 28.39297 02 52 34.69 +12 52 12.7 19.3   704 – Lincoln Laboratory ETS, New Mexico MPS 20222
2000 10 02.44651 02 51 49.15 +12 22 42.4 19.4   704 – Lincoln Laboratory ETS, New Mexico MPS 20222
2000 10 02.46118 02 51 48.86 +12 22 36.6 20.1   704 – Lincoln Laboratory ETS, New Mexico MPS 20222
2000 10 02.47584 02 51 48.52 +12 22 29.3 19.6   704 – Lincoln Laboratory ETS, New Mexico MPS 20222
2000 10 06.47348 02 50 28.70 +11 50 33.8 19.7 V 691 – Steward Observatory, Kitt Peak-Spacewatch MPS 20222
2000 10 06.49146 02 50 28.20 +11 50 24.7 19.7 V 691 – Steward Observatory, Kitt Peak-Spacewatch MPS 20222
2000 10 06.50915 02 50 27.73 +11 50 15.9 19.8 V 691 – Steward Observatory, Kitt Peak-Spacewatch MPS 20222
2000 10 24.38238 02 38 46.07 +09 05 57.5 18.7   704 – Lincoln Laboratory ETS, New Mexico MPS 21385
2000 10 24.39881 02 38 45.23 +09 05 48.1 18.8   704 – Lincoln Laboratory ETS, New Mexico MPS 21385
2000 10 24.41769 02 38 44.20 +09 05 35.8 19.1   704 – Lincoln Laboratory ETS, New Mexico MPS 21385
2000 10 24.43258 02 38 43.51 +09 05 28.1 18.9   704 – Lincoln Laboratory ETS, New Mexico MPS 21385
2000 10 24.44606 02 38 42.71 +09 05 20.4 18.8   704 – Lincoln Laboratory ETS, New Mexico MPS 21385
2000 10 31.28182 02 32 47.06 +08 01 45.5 18.4   704 – Lincoln Laboratory ETS, New Mexico MPS 21385
2000 10 31.29575 02 32 46.28 +08 01 36.8 18.8   704 – Lincoln Laboratory ETS, New Mexico MPS 21385
2000 10 31.31062 02 32 45.44 +08 01 28.5 19.1   704 – Lincoln Laboratory ETS, New Mexico MPS 21385
2000 10 31.32452 02 32 44.67 +08 01 21.7 18.6   704 – Lincoln Laboratory ETS, New Mexico MPS 21385
2000 10 31.33850 02 32 43.85 +08 01 14.8 18.8   704 – Lincoln Laboratory ETS, New Mexico MPS 21385
2000 11 02.29335 02 31 01.06 +07 43 56.2 18.3   704 – Lincoln Laboratory ETS, New Mexico MPS 21385
2000 11 02.32238 02 30 59.37 +07 43 41.7 18.5   704 – Lincoln Laboratory ETS, New Mexico MPS 21385
2000 11 02.33666 02 30 58.56 +07 43 32.9 18.8   704 – Lincoln Laboratory ETS, New Mexico MPS 21385
2000 11 02.35106 02 30 57.76 +07 43 25.7 18.9   704 – Lincoln Laboratory ETS, New Mexico MPS 21385
2000 11 26.24087 02 14 35.46 +05 17 58.5 19.2   704 – Lincoln Laboratory ETS, New Mexico MPS 22553
2000 11 26.25565 02 14 35.16 +05 17 55.0 19.2   704 – Lincoln Laboratory ETS, New Mexico MPS 22553
2000 11 26.27044 02 14 34.77 +05 17 53.0 19.8   704 – Lincoln Laboratory ETS, New Mexico MPS 22553
2000 11 26.28541 02 14 34.40 +05 17 50.7 19.6   704 – Lincoln Laboratory ETS, New Mexico MPS 22553
2002 03 20.31978 12 07 31.36 -02 03 52.6 21.5 V 691 – Steward Observatory, Kitt Peak-Spacewatch MPS 57063
2002 03 20.34081 12 07 30.15 -02 03 41.8 21.5 V 691 – Steward Observatory, Kitt Peak-Spacewatch MPS 57063
2002 03 20.37356 12 07 28.28 -02 03 25.4 21.3 V 691 – Steward Observatory, Kitt Peak-Spacewatch MPS 57063
2002 04 13.19354 11 47 08.83 +01 07 38.1 22.2 V 691 – Steward Observatory, Kitt Peak-Spacewatch MPS 55913
2002 04 13.21440 11 47 07.91 +01 07 47.3 22.4 V 691 – Steward Observatory, Kitt Peak-Spacewatch MPS 55913
2002 04 13.23522 11 47 07.01 +01 07 55.5 22.1 V 691 – Steward Observatory, Kitt Peak-Spacewatch MPS 55913
2002 04 19.13517 11 43 26.22 +01 45 46.9 21.3 V 691 – Steward Observatory, Kitt Peak-Spacewatch MPS 55913
2002 04 19.15826 11 43 25.36 +01 45 56.0 21.3 V 691 – Steward Observatory, Kitt Peak-Spacewatch MPS 55913
2002 04 19.18014 11 43 24.63 +01 46 03.3 22.1 V 691 – Steward Observatory, Kitt Peak-Spacewatch MPS 55913
2003 07 24.32100 20 49 16.09 -06 31 19.7 18.6   644 – Palomar Mountain/NEAT MPS 82634
2003 07 24.34301 20 49 14.90 -06 31 24.8 18.7   644 – Palomar Mountain/NEAT MPS 82634
2003 07 24.36459 20 49 13.74 -06 31 30.1 18.7   644 – Palomar Mountain/NEAT MPS 82634
2003 07 25.27766 20 48 27.23 -06 35 12.0 18.4   644 – Palomar Mountain/NEAT MPS 82388
2003 07 25.34454 20 48 23.58 -06 35 29.0 18.7   644 – Palomar Mountain/NEAT MPS 82388
2003 07 25.40753 20 48 20.16 -06 35 44.4 18.3   644 – Palomar Mountain/NEAT MPS 82388
2003 08 25.20201 20 22 35.04 -09 55 17.2 18.4   704 – Lincoln Laboratory ETS, New Mexico MPS 83266
2003 08 25.21546 20 22 34.57 -09 55 23.7 19.0   704 – Lincoln Laboratory ETS, New Mexico MPS 83266
2003 08 25.24113 20 22 33.51 -09 55 34.7 19.3   704 – Lincoln Laboratory ETS, New Mexico MPS 83266
2003 08 25.25400 20 22 33.05 -09 55 41.0 19.5   704 – Lincoln Laboratory ETS, New Mexico MPS 83266
2005 03 17.19516 09 14 58.17 +10 10 07.1 19.7 R G96 – Mt. Lemmon Survey MPS 129781
2005 03 17.20049 09 14 58.02 +10 10 09.5 20.1 R G96 – Mt. Lemmon Survey MPS 129781
2005 03 17.20582 09 14 57.86 +10 10 11.0 19.9 R G96 – Mt. Lemmon Survey MPS 129781
2005 03 17.21117 09 14 57.70 +10 10 13.0 21.0 R G96 – Mt. Lemmon Survey MPS 129781
2005 03 17.21633 09 14 57.60 +10 10 14.8 20.5 R G96 – Mt. Lemmon Survey MPS 129781
2005 03 17.22256 09 14 57.42 +10 10 16.7 20.8 R G96 – Mt. Lemmon Survey MPS 129781
2005 03 17.22876 09 14 57.27 +10 10 18.6 20.6 R G96 – Mt. Lemmon Survey MPS 129781
2005 03 17.23496 09 14 57.12 +10 10 20.9 20.4 R G96 – Mt. Lemmon Survey MPS 129781
2009 03 28.37328 14 19 42.77 -10 47 21.1 21.4 V 691 – Steward Observatory, Kitt Peak-Spacewatch MPS 283187
2009 03 28.39097 14 19 42.06 -10 47 13.9 20.8 V 691 – Steward Observatory, Kitt Peak-Spacewatch MPS 283187
2009 03 28.40867 14 19 41.34 -10 47 07.6 20.6 V 691 – Steward Observatory, Kitt Peak-Spacewatch MPS 283187
2009 04 19.37501 14 01 22.62 -08 09 10.6 20.6 V G96 – Mt. Lemmon Survey MPS 285136
2009 04 19.38192 14 01 22.26 -08 09 07.1 20.6 V G96 – Mt. Lemmon Survey MPS 285136
2009 04 19.38867 14 01 21.82 -08 09 04.5 20.4 V G96 – Mt. Lemmon Survey MPS 285136
2009 04 19.39557 14 01 21.43 -08 09 01.1 20.7 V G96 – Mt. Lemmon Survey MPS 285136
2010 06 30.944279 00 32 22.10 +07 25 41.4   C51 – WISE MPS 345630
2010 07 01.076582 00 32 34.81 +07 26 52.3   C51 – WISE MPS 345630
2010 07 01.208887 00 32 47.58 +07 28 01.7   C51 – WISE MPS 345630
2010 07 01.341190 00 33 00.403 +07 29 11.11   C51 – WISE MPS 902400
2010 07 01.671881 00 33 32.31 +07 32 06.3   C51 – WISE MPS 345630
2010 07 01.672008 00 33 32.378 +07 32 05.86   C51 – WISE MPS 902400
2010 07 01.738096 00 33 38.64 +07 32 41.1   C51 – WISE MPS 345630
2010 07 01.804185 00 33 44.93 +07 33 15.2   C51 – WISE MPS 345630
2010 07 01.870400 00 33 51.35 +07 33 49.8   C51 – WISE MPS 345630
2010 07 01.936488 00 33 57.74 +07 34 25.0   C51 – WISE MPS 379852
2010 07 02.002704 00 34 04.06 +07 34 59.6   C51 – WISE MPS 345630
2010 07 02.068793 00 34 10.40 +07 35 35.1   C51 – WISE MPS 345630
2010 07 02.201096 00 34 23.04 +07 36 44.6   C51 – WISE MPS 345630
2010 07 02.33340 00 34 35.86 +07 37 51.9   C51 – WISE MPS 345630
2010 07 02.46570 00 34 48.58 +07 39 00.8   C51 – WISE MPS 345630
2010 07 02.598007 00 35 01.18 +07 40 09.9   C51 – WISE MPS 345630
2010 07 02.73031 00 35 13.84 +07 41 18.7   C51 – WISE MPS 345630
2010 09 10.36499 01 42 51.05 +10 45 47.9 19.7 V 691 – Steward Observatory, Kitt Peak-Spacewatch MPS 347522
2010 09 10.38275 01 42 51.00 +10 45 42.2 19.6 V 691 – Steward Observatory, Kitt Peak-Spacewatch MPS 347522
2010 09 10.40048 01 42 50.96 +10 45 36.3 19.5 V 691 – Steward Observatory, Kitt Peak-Spacewatch MPS 347522
2010 09 18.36444 01 41 50.46 +09 53 52.6 19.2 V 691 – Steward Observatory, Kitt Peak-Spacewatch MPS 348795
